N6YV Weather Reports


Display with metric or nautical units.
time (UTC)temp
F
wind
direction
speed
MPH
gust
MPH
rain 1hr
in
rain 24hr
in
rain mn
in
humidity
%
barometer
mb
20260504081511 49 205 2.0 0.0 0.00 0.00 0.00 67 1003.3
20260504044605 50 201 2.0 0.0 0.00 0.00 0.00 66 1004.0
20260504043059 50 155 4.0 0.0 0.00 0.00 0.00 67 1003.9
20260504041557 49 90 3.0 0.0 0.00 0.00 0.00 69 1003.9
20260504040107 51 90 0.0 0.0 0.00 0.00 0.00 66 1003.5
20260504034625 52 90 0.0 0.0 0.00 0.00 0.00 64 1003.2
20260504033056 53 90 1.0 0.0 0.00 0.00 0.00 63 1002.8
20260504031555 54 90 0.0 0.0 0.00 0.00 0.00 60 1002.8
20260504030120 54 90 1.0 0.0 0.00 0.00 0.00 59 1002.8
20260504024559 55 95 3.0 0.0 0.00 0.00 0.00 55 1003.0
20260504023054 54 279 8.0 0.0 0.00 0.00 0.00 56 1002.7
20260504021554 54 26 2.0 0.0 0.00 0.00 0.00 58 1003.7
20260504020105 55 26 0.0 0.0 0.00 0.00 0.00 55 1004.4
20260504014558 55 26 1.0 0.0 0.00 0.00 0.00 54 1004.2
20260504013055 55 26 2.0 0.0 0.00 0.00 0.00 55 1003.9
20260504011551 56 26 5.0 0.0 0.00 0.00 0.00 54 1003.2
20260504010052 57 43 2.0 0.0 0.00 0.00 0.00 48 1003.1
20260504004551 57 105 3.0 0.0 0.00 0.00 0.00 48 1002.8
20260504003050 58 102 5.0 0.0 0.00 0.00 0.00 46 1003.0
20260504001603 58 205 9.0 0.0 0.00 0.00 0.00 44 1002.8
20260504000055 60 217 13.0 0.0 0.00 0.00 0.00 42 1002.8
20260503234550 59 235 10.0 0.0 0.00 0.00 0.00 46 1002.9
20260503233049 58 262 14.0 0.0 0.00 0.00 0.00 48 1003.0
20260503231552 56 203 16.0 0.0 0.00 0.00 0.00 52 1003.5
20260503230052 56 232 9.0 0.0 0.00 0.00 0.00 51 1003.6
20260503224548 55 252 9.0 0.0 0.00 0.00 0.00 51 1003.8
20260503223047 55 215 14.0 0.0 0.00 0.00 0.00 57 1003.3
20260503221548 56 225 17.0 0.0 0.00 0.00 0.00 52 1002.3
20260503220046 55 214 21.0 0.0 0.00 0.00 0.00 55 1001.7
20260503214554 63 229 17.0 0.0 0.00 0.00 0.00 39 1001.1
20260503213047 70 207 2.0 0.0 0.00 0.00 0.00 22 1000.1
20260503211548 71 26 6.0 0.0 0.00 0.00 0.00 23 1000.1
20260503210040 71 11 6.0 0.0 0.00 0.00 0.00 24 1000.5
20260503204540 70 360 5.0 0.0 0.00 0.00 0.00 29 1000.9
20260503203035 69 343 7.0 0.0 0.00 0.00 0.00 30 1000.9
20260503201532 68 347 6.0 0.0 0.00 0.00 0.00 32 1001.5
20260503200032 68 19 4.0 0.0 0.00 0.00 0.00 33 1001.5
20260503194529 67 37 5.0 0.0 0.00 0.00 0.00 33 1002.0
20260503193027 68 11 6.0 0.0 0.00 0.00 0.00 33 1002.2
20260503191522 67 329 5.0 0.0 0.00 0.00 0.00 35 1002.7
20260503190038 66 59 3.0 0.0 0.00 0.00 0.00 36 1002.8
20260503184516 65 27 3.0 0.0 0.00 0.00 0.00 38 1003.1
20260503183016 65 30 4.0 0.0 0.00 0.00 0.00 39 1003.3
20260503181510 64 9 4.0 0.0 0.00 0.00 0.00 42 1003.5
20260503180011 63 44 3.0 0.0 0.00 0.00 0.00 41 1003.7
20260503174505 62 67 3.0 0.0 0.00 0.00 0.00 47 1003.7
20260503173115 61 71 3.0 0.0 0.00 0.00 0.00 54 1003.8
20260503171557 60 37 2.0 0.0 0.00 0.00 0.00 56 1003.8